Birmingham, United Kingdom

10:26 PM BST on September 24, 2016 (GMT +0100)
Birmingham

Weather History for EGBB - November, 2013

Change the Weather History Date:

Wednesday, November 20, 2013

  Actual Average Record
Temperature  
Mean Temperature 38 °F -  
Max Temperature 44 °F 46 °F 55 °F (2012)
Min Temperature 33 °F 35 °F 26 °F (1999)
Degree Days  
Heating Degree Days 26    
Moisture  
Dew Point 36 °F    
Average Humidity 86    
Maximum Humidity 93    
Minimum Humidity 71    
Precipitation  
Precipitation 0.00 in - - ()
Sea Level Pressure  
Sea Level Pressure 29.57 in    
Wind  
Wind Speed 12 mph ()    
Max Wind Speed 26 mph    
Max Gust Speed 40 mph    
Visibility 5.9 miles    
Events Rain    
Averages and records for this station are not official NWS values.
T = Trace of Precipitation, MM = Missing Value Source: Averaged Metar Reports

Daily Weather History Graph

Daily Weather History Graph

Search for Another Location

Airport or City:

Trip Planner

Search our weather history database for the weather conditions in past years. The results will help you decide how hot, cold, wet, or windy it might be!

Date:

Astronomy

Nov. 20, 2013 Rise Set
Actual Time 7:37 AM GMT 4:07 PM GMT
Civil Twilight 6:58 AM GMT 4:46 PM GMT
Nautical Twilight 6:16 AM GMT 5:28 PM GMT
Astronomical Twilight 5:36 AM GMT 6:08 PM GMT
Moon 6:36 PM GMT (11/20) 9:53 AM GMT (11/20)
Length of Visible Light 9h 47m
Length of Day
8h 29m
Waning Gibbous, 92% of the Moon is Illuminated
Nov 20
Waning Gibbous
Nov 25
Last Quarter
Dec 3
New
Dec 9
First Quarter
Dec 17
Full

Hourly Weather History & Observations

Time (GMT) Temp. Windchill Dew Point Humidity Pressure Visibility Wind Dir Wind Speed Gust Speed Precip Events Conditions
12:20 AM 33.8 °F 27.0 °F 30.2 °F 87% 29.98 in 6.2 mi SW 8.1 mph - N/A   Unknown
12:50 AM 33.8 °F 26.4 °F 30.2 °F 87% 29.98 in 6.2 mi SSW 9.2 mph - N/A   Mostly Cloudy
1:20 AM 35.6 °F 28.6 °F 30.2 °F 81% 29.95 in 6.2 mi SW 9.2 mph - N/A   Mostly Cloudy
1:50 AM 35.6 °F 28.6 °F 30.2 °F 81% 29.92 in 6.2 mi SW 9.2 mph - N/A   Unknown
2:20 AM 37.4 °F 30.3 °F 30.2 °F 75% 29.89 in 6.2 mi SW 10.4 mph - N/A   Unknown
2:50 AM 37.4 °F 29.8 °F 30.2 °F 75% 29.86 in 6.2 mi SW 11.5 mph - N/A   Unknown
3:20 AM 35.6 °F 27.1 °F 30.2 °F 81% 29.83 in 6.2 mi SW 12.7 mph - N/A   Unknown
3:50 AM 35.6 °F 27.1 °F 30.2 °F 81% 29.80 in 6.2 mi SW 12.7 mph - N/A   Unknown
4:20 AM 35.6 °F 26.6 °F 32.0 °F 87% 29.77 in - SW 13.8 mph - N/A   Clear
4:50 AM 37.4 °F 29.8 °F 32.0 °F 81% 29.74 in - SW 11.5 mph - N/A   Clear
5:20 AM 39.2 °F 30.8 °F 33.8 °F 81% 29.71 in - WSW 15.0 mph - N/A   Clear
5:50 AM 39.2 °F 30.8 °F 35.6 °F 87% 29.68 in 6.2 mi SW 15.0 mph - N/A Rain Light Rain
6:20 AM 41.0 °F 32.8 °F 37.4 °F 87% 29.65 in - WSW 16.1 mph - N/A   Clear
6:50 AM 42.8 °F 35.4 °F 39.2 °F 87% 29.62 in 6.2 mi WSW 15.0 mph - N/A   Scattered Clouds
7:20 AM 42.8 °F 36.2 °F 39.2 °F 87% 29.59 in 6.2 mi SW 12.7 mph - N/A   Light Drizzle
7:50 AM 42.8 °F 35.4 °F 41.0 °F 93% 29.59 in 6.2 mi SW 15.0 mph - N/A   Overcast
8:20 AM 42.8 °F 35.8 °F 41.0 °F 93% 29.56 in 6.2 mi SW 13.8 mph - N/A Rain Light Rain Showers
8:50 AM 44.6 °F 37.8 °F 41.0 °F 87% 29.53 in 6.2 mi WSW 15.0 mph - N/A Rain Light Rain Showers
9:20 AM 44.6 °F 38.1 °F 41.0 °F 87% 29.50 in 3.1 mi WSW 13.8 mph - N/A Rain Light Rain
9:50 AM 39.2 °F 28.0 °F 37.4 °F 93% 29.53 in 3.1 mi NW 26.5 mph 39.1 mph N/A Rain Rain
10:20 AM 39.2 °F 30.8 °F 37.4 °F 93% 29.53 in 6.2 mi NW 15.0 mph - N/A   Mostly Cloudy
10:50 AM 39.2 °F 32.0 °F 37.4 °F 93% 29.53 in 6.2 mi NW 11.5 mph - N/A   Scattered Clouds
11:20 AM 39.2 °F 33.6 °F 37.4 °F 93% 29.53 in 6.2 mi West 8.1 mph - N/A   Partly Cloudy
11:50 AM 42.8 °F 35.1 °F 39.2 °F 87% 29.50 in 6.2 mi WNW 16.1 mph - N/A   Partly Cloudy
12:20 PM 44.6 °F 37.2 °F 37.4 °F 76% 29.47 in 6.2 mi NW 17.3 mph - N/A   Partly Cloudy
12:50 PM 44.6 °F 37.2 °F 37.4 °F 76% 29.47 in 6.2 mi NW 17.3 mph - N/A   Scattered Clouds
1:20 PM 44.6 °F 37.2 °F 35.6 °F 71% 29.47 in 6.2 mi NW 17.3 mph - N/A   Partly Cloudy
1:50 PM 44.6 °F 38.8 °F 35.6 °F 71% 29.47 in 4.3 mi WNW 11.5 mph - N/A   Mostly Cloudy
2:20 PM 39.2 °F 30.8 °F 37.4 °F 93% 29.47 in 5.0 mi WNW 15.0 mph - N/A Rain Light Rain
2:50 PM 41.0 °F 34.3 °F 37.4 °F 87% 29.44 in 6.2 mi WNW 11.5 mph - N/A   Mostly Cloudy
3:20 PM 39.2 °F 32.0 °F 37.4 °F 93% 29.44 in 3.7 mi West 11.5 mph - N/A Rain Rain
3:50 PM 39.2 °F 31.2 °F 37.4 °F 93% 29.44 in 6.2 mi WNW 13.8 mph - N/A Rain Light Rain
4:20 PM 39.2 °F 32.5 °F 37.4 °F 93% 29.42 in 6.2 mi West 10.4 mph - N/A   Mostly Cloudy
4:50 PM 39.2 °F 32.0 °F 37.4 °F 93% 29.44 in 6.2 mi WNW 11.5 mph - N/A   Scattered Clouds
5:20 PM 41.0 °F 34.3 °F 37.4 °F 87% 29.44 in 6.2 mi NW 11.5 mph - N/A   Scattered Clouds
5:50 PM 39.2 °F 32.0 °F 35.6 °F 87% 29.44 in 6.2 mi NNW 11.5 mph - N/A Rain Light Rain
6:20 PM 39.2 °F 31.6 °F 35.6 °F 87% 29.44 in 6.2 mi NW 12.7 mph - N/A   Partly Cloudy
6:50 PM 39.2 °F 30.5 °F 35.6 °F 87% 29.44 in 6.2 mi NW 16.1 mph - N/A   Scattered Clouds
7:20 PM 39.2 °F 30.8 °F 35.6 °F 87% 29.44 in 6.2 mi NW 15.0 mph - N/A   Scattered Clouds
7:50 PM 41.0 °F 32.8 °F 35.6 °F 81% 29.44 in 6.2 mi NW 16.1 mph - N/A   Mostly Cloudy
8:20 PM 41.0 °F 32.2 °F 35.6 °F 81% 29.44 in 6.2 mi NW 18.4 mph - N/A   Partly Cloudy
8:50 PM 41.0 °F 31.1 °F 35.6 °F 81% 29.44 in 5.0 mi NW 23.0 mph 40.3 mph N/A Rain Light Rain
9:20 PM 41.0 °F 31.9 °F 35.6 °F 81% 29.44 in 6.2 mi NW 19.6 mph - N/A Rain Light Rain
9:50 PM 39.2 °F 29.6 °F 35.6 °F 87% 29.44 in 6.2 mi NNW 19.6 mph 35.7 mph N/A Rain Light Rain
10:20 PM 39.2 °F 29.3 °F 35.6 °F 87% 29.44 in 6.2 mi NNW 20.7 mph - N/A Rain Light Rain
10:50 PM 37.4 °F 27.2 °F 35.6 °F 93% 29.44 in 6.2 mi NNW 19.6 mph - N/A Rain Light Rain
11:20 PM 37.4 °F 27.8 °F 35.6 °F 93% 29.47 in 6.2 mi NNW 17.3 mph - N/A Rain Light Rain
11:50 PM 37.4 °F 28.5 °F 35.6 °F 93% 29.47 in 6.2 mi NNW 15.0 mph - N/A Rain Light Rain